Location: Domont
(49.0278°N, 2.3264°E)
Time: 18:30:23
(UTC+00:00)

Envisat - Pass Details

Date: 31 January 2022
Orbit: 764 x 765 km, 98.2° (Epoch: 19 May)

Event Time Altitude Azimuth Distance (km) Brightness Sun altitude
Rises 06:09:14 0° 4° (N) 3,244 6.2 -12.2°
Reaches altitude 10° 06:11:54 10° 352° (N) 2,313 5.3 -11.8°
Maximum altitude 06:15:55 24° 299° (WNW) 1,546 4.0 -11.1°
Drops below altitude 10° 06:19:56 10° 247° (WSW) 2,302 5.0 -10.5°
Sets 06:22:36 0° 234° (SW) 3,225 5.9 -10.1°
